SCP
-0 0 1 1 0 0 0 0 0 0 0 0 0 0 0 0 0 0 0 0 0 0 0 0 0 0 0 0 0 0 0 0 0 0 0 0 0 0 0 0 0 0 0
0 0 1 1 0 0 0 0 0 0 0 0 0 0 0 0 0 0 0 0 0 0 0 0 0 0 0 0 0 0 0 0 0 0 0 0 0 0 0 0 0 0 0
0 0 0 1 0 0 0 0 0 0 0 0 0 0 0 0 0 0 0 0 0 0 0 0 0 0 0 0 0 0 0 0 0 0 0 1 0 0 0 0 0 0 0
0 0 0 1 0 0 0 0 0 0 0 0 0 0 0 0 0 0 0 0 0 0 0 0 0 0 0 0 0 0 0 0 0 0 0 0 1 0 0 0 0 0 0
0 0 0 1 0 0 0 0 0 0 0 0 0 0 0 0 0 0 0 0 0 0 0 0 0 0 0 0 0 0 0 0 0 0 0 0 1 0 0 0 0 0 0
0 0 0 1 1 1 1 1 1 1 0 0 0 0 0 0 0 0 0 0 0 0 0 0 0 0 0 0 0 0 0 0 0 0 0 0 0 1 0 0 0 0 0
0 0 0 1 1 1 1 1 1 1 1 1 0 0 0 0 0 0 0 0 0 0 0 0 0 0 0 0 0 0 0 0 0 0 0 0 0 0 1 0 0 0 0
0 0 0 1 2 1 1 1 1 1 1 1 1 1 1 1 1 0 0 0 0 0 0 0 0 0 0 0 0 0 0 0 0 0 0 0 0 0 1 0 1 0 0
0 0 0 1 1 1 1 1 1 1 1 2 2 1 1 1 1 0 0 0 0 0 0 0 0 0 0 0 0 0 0 0 0 0 0 0 0 0 1 1 1 0 0
0 0 0 1 1 1 1 2 2 2 2 2 2 2 2 1 0 0 0 0 0 0 0 0 0 0 0 0 0 0 0 0 0 0 0 0 0 0 1 1 1 0 0
0 0 0 1 1 1 1 1 2 2 2 2 2 1 1 0 0 0 0 0 0 0 0 0 0 0 0 0 0 0 0 0 0 0 0 0 0 0 0 1 0 0 0
0 0 0 1 1 1 2 2 2 1 1 1 1 1 1 0 0 0 0 0 0 0 0 0 0 0 0 0 0 0 0 0 0 0 0 0 0 0 0 1 0 0 0
0 0 0 1 1 1 2 2 2 1 1 1 1 1 0 0 0 0 0 0 0 0 0 0 0 0 0 0 0 0 0 0 0 0 0 0 0 0 0 1 0 0 0
0 0 0 1 1 2 1 1 1 1 1 0 0 0 0 0 0 0 0 0 0 0 0 0 0 0 0 0 0 0 0 0 0 0 0 0 0 0 0 1 1 0 0
0 0 0 0 1 1 1 1 0 0 0 0 0 0 0 0 0 0 0 0 0 0 0 0 0 0 0 0 0 0 0 0 0 0 0 0 0 0 0 1 1 0 0
0 0 0 0 1 1 0 0 0 0 0 0 0 0 0 0 0 0 0 0 0 0 0 0 0 0 0 0 0 0 0 0 0 0 0 0 0 0 0 1 1 0 0
0 0 0 0 0 0 0 0 0 0 0 0 0 0 0 0 0 0 0 0 0 0 0 0 0 0 0 0 0 0 0 0 0 0 0 0 0 0 0 1 1 0 0
0 0 0 0 0 0 0 0 0 0 0 0 0 0 0 0 0 0 0 0 0 0 0 0 0 0 0 0 0 0 0 0 0 0 0 0 0 1 1 1 0 0 0
0 0 0 0 0 0 0 0 0 0 0 0 0 0 0 0 0 0 0 0 0 0 0 0 0 0 0 0 0 0 0 0 0 0 0 0 1 1 1 1 0 0 0
0 0 0 0 0 0 0 0 0 0 0 0 0 0 0 0 0 0 0 0 0 0 0 0 0 0 0 0 0 0 0 0 0 0 0 1 1 1 1 1 1 0 0
0 0 0 0 0 0 0 0 0 0 0 0 0 0 0 0 0 0 0 0 0 0 0 0 0 0 0 0 0 0 0 0 1 0 0 1 1 1 1 1 1 0 0
0 0 0 0 0 0 0 0 0 0 0 0 0 0 0 0 0 0 0 0 0 0 0 0 0 0 0 0 0 0 0 0 0 0 0 0 0 1 1 1 0 1 0
0 0 0 0 0 0 0 0 0 0 0 0 0 0 0 0 0 0 0 0 0 0 0 0 0 0 -0 0 0 0 0 0 0 0 0 0 1 1 1 0 0 0 0
0 0 0 0 0 0 0 0 0 0 0 0 0 0 0 0 0 0 0 0 0 0 0 0 0 -0 -0 -0 0 0 0 0 0 0 0 0 0 0 0 0 0 0 0
0 0 0 0 0 0 0 0 0 0 0 0 0 0 0 0 0 0 0 0 0 0 0 0 0 0 0 0 0 0 0 0 0 0 0 0 0 0 0 0 0 0 0
0 0 0 0 0 0 0 0 0 0 0 0 0 0 0 0 0 0 0 -0 0 0 0 0 0 0 0 0 0 0 0 0 0 0 0 0 0 0 0 0 0 0 0
Wind_Speed_500mb
36 37 36 36 28 22 17 13 9 7 10 12 14 14 15 15 16 18 19 21 20 20 20 19 18 21 25 27 30 31 33 30 31 33 28 28 27 23 20 16 18 22 17
26 29 32 34 30 24 19 16 15 12 11 14 15 15 17 17 17 17 18 18 19 20 22 21 20 20 21 25 27 30 33 35 31 31 30 28 31 31 26 24 22 27 22
25 24 30 31 31 26 19 19 19 15 14 15 17 17 17 19 21 20 18 18 18 20 21 22 21 21 20 23 26 29 31 35 36 33 31 31 30 35 35 30 27 29 27
23 21 28 29 28 25 20 20 20 17 16 17 18 19 21 20 21 24 21 22 26 25 25 23 21 21 21 24 23 28 30 32 35 35 33 33 33 33 38 36 35 35 32
25 19 23 27 31 29 23 17 18 16 16 17 18 20 22 22 21 22 25 26 27 28 26 24 21 24 24 24 24 24 27 30 30 32 38 37 34 37 34 38 39 39 38
21 24 26 29 32 32 32 27 22 19 17 15 18 21 21 21 21 26 31 32 31 29 29 30 28 29 33 29 28 26 25 26 28 25 35 39 36 38 42 37 38 40 43
23 24 31 33 34 35 39 35 31 25 21 18 18 21 22 20 27 31 33 36 38 36 35 37 36 38 34 32 32 31 30 26 24 23 29 37 41 38 42 42 39 41 46
26 20 32 34 34 36 40 37 34 29 23 23 22 25 25 24 30 29 34 39 43 42 42 42 39 40 40 38 37 37 35 30 23 26 30 35 42 41 44 42 41 42 49
34 28 30 36 38 39 41 38 36 31 27 27 27 28 28 28 31 33 35 34 39 41 45 50 52 46 47 44 42 39 36 34 24 25 33 34 41 43 45 47 42 40 49
45 40 38 40 42 46 50 46 41 35 30 30 32 33 32 32 34 35 35 36 38 38 41 45 51 53 50 48 45 43 40 38 30 30 30 35 41 43 44 48 46 42 46
57 53 48 49 49 49 53 50 44 37 33 34 36 37 35 37 37 37 35 36 34 34 36 38 38 38 41 48 48 48 43 35 34 31 29 37 41 43 43 47 48 44 43
72 65 60 56 55 55 55 51 46 38 36 37 39 39 39 39 39 40 39 36 31 30 32 35 34 35 35 31 33 43 39 37 35 32 33 35 41 45 44 44 48 47 43
77 74 67 61 57 57 58 53 48 39 37 39 40 40 37 38 40 40 39 34 30 28 28 29 34 39 39 31 29 31 33 36 33 32 35 38 40 45 46 44 44 49 44
79 81 75 65 58 60 59 53 45 39 38 40 37 36 36 36 35 36 36 32 32 28 27 26 25 29 38 36 36 31 33 35 33 31 40 40 39 44 46 45 43 46 46
79 86 84 69 63 61 59 52 45 39 39 34 34 33 32 32 31 31 33 34 32 31 28 29 27 27 30 33 35 33 32 35 38 34 40 41 40 45 44 42 43 44 45
73 87 84 75 65 60 56 48 40 37 35 32 29 28 30 32 31 31 32 34 36 34 28 25 27 29 26 31 31 34 35 36 37 37 39 39 40 42 42 41 40 43 50
71 81 82 73 64 58 51 43 38 38 33 27 25 28 34 35 32 30 31 33 33 33 29 27 27 26 29 30 30 32 33 32 33 35 37 35 38 41 39 37 37 45 53
71 78 72 71 65 56 49 40 38 35 28 24 25 29 33 35 33 29 30 31 31 32 32 28 26 27 27 29 31 31 30 27 28 31 32 32 34 35 33 32 37 49 58
62 65 64 69 62 55 46 40 37 30 26 24 26 28 30 32 33 31 30 29 30 32 32 28 25 24 28 26 29 29 27 22 25 27 27 27 29 29 27 26 35 51 74
44 46 54 63 65 54 43 39 33 28 24 26 27 31 31 32 32 32 29 27 30 30 30 26 23 23 26 24 27 25 24 21 23 23 24 21 24 21 22 18 32 23 41
33 39 54 69 63 54 43 37 30 24 21 25 30 31 32 32 30 29 27 23 28 28 26 24 24 24 26 24 25 21 17 16 17 17 22 18 20 20 22 22 30 23 26
25 44 61 64 57 44 35 28 22 18 22 21 26 24 21 18 22 26 23 20 25 26 24 23 25 28 27 25 21 21 15 15 15 19 22 20 21 23 23 20 34 34 46
36 50 62 56 44 35 28 22 18 17 16 19 17 13 12 15 17 20 18 18 21 21 20 19 21 31 28 28 24 16 16 14 18 15 16 17 21 20 19 23 37 41 37
35 55 57 48 37 29 24 20 14 12 12 12 10 10 13 13 14 10 13 18 16 15 15 15 22 29 28 32 29 19 17 18 13 13 15 13 18 19 14 27 37 50 43
54 60 50 39 31 27 24 17 9 7 9 9 8 12 15 12 8 6 11 11 10 12 13 19 28 30 26 28 28 25 20 20 21 17 17 23 17 17 14 23 32 45 51
62 55 44 36 30 26 21 15 4 6 6 9 12 15 16 11 9 11 10 11 12 12 15 20 24 25 22 20 23 28 18 15 17 14 27 28 27 20 26 28 36 44 35
Wind_Direction_500mb
185 190 199 202 202 205 210 221 224 268 303 305 299 294 286 270 254 246 242 248 252 257 261 261 260 248 255 244 241 237 234 230 230 228 217 220 215 218 215 215 202 196 186
182 183 196 202 206 206 211 222 230 258 281 302 299 294 290 280 268 256 247 240 253 260 265 262 260 261 253 257 242 240 238 235 229 231 228 221 222 218 220 216 211 205 202
172 177 194 199 205 208 216 218 230 249 272 298 301 295 290 284 281 276 259 259 257 259 256 264 263 259 258 257 250 244 241 240 234 229 229 227 223 221 223 222 215 212 210
174 172 185 193 199 205 209 220 231 251 280 296 299 300 291 287 279 278 269 292 293 279 258 250 259 265 259 260 254 249 245 242 238 233 228 228 226 223 222 225 219 214 212
175 181 181 188 198 203 204 209 228 250 277 294 300 300 290 285 264 264 259 283 281 281 280 262 262 262 266 265 267 261 253 250 246 236 232 226 224 226 221 220 224 217 211
182 189 190 193 200 206 212 214 218 234 256 282 300 303 292 280 263 269 265 268 269 267 267 254 257 254 248 261 264 268 264 254 246 241 235 228 225 222 224 219 220 217 209
195 199 199 203 209 212 218 224 226 235 252 265 283 304 296 279 266 267 268 269 267 265 262 257 250 256 259 255 252 260 264 259 246 241 238 227 225 223 223 224 219 218 209
210 211 206 210 215 217 222 228 231 238 254 264 280 300 295 273 267 266 268 270 269 265 260 256 249 252 253 248 247 248 248 254 249 238 237 231 223 223 220 220 222 217 214
214 215 216 217 220 222 224 230 232 238 253 264 279 288 287 272 268 275 276 273 275 271 259 254 254 253 249 251 247 244 246 249 240 241 237 232 224 222 221 218 220 215 212
222 219 224 223 223 224 224 229 232 238 253 266 275 282 282 272 270 274 271 277 280 273 261 254 251 246 245 247 249 246 245 245 242 240 239 231 223 222 220 220 218 217 214
226 224 226 225 225 227 229 231 232 238 256 268 275 279 279 272 270 266 265 276 274 271 264 259 256 254 252 246 245 246 242 236 234 237 240 233 225 219 221 222 219 221 217
232 230 230 228 228 228 230 230 232 241 255 269 280 279 275 270 271 271 271 280 271 270 264 258 247 244 255 250 245 240 235 231 232 240 239 233 227 219 222 220 222 221 220
247 235 233 230 229 229 230 230 235 244 258 272 276 272 267 265 268 268 269 271 270 274 269 263 253 248 252 254 239 230 229 226 228 236 235 229 227 222 221 220 225 222 220
252 241 238 233 230 229 228 230 237 248 260 273 270 263 259 260 267 268 268 265 262 268 263 261 258 258 249 249 242 235 227 222 225 236 233 228 227 223 222 222 225 223 219
259 246 240 235 228 228 227 230 235 249 266 266 264 261 255 261 270 273 269 261 260 260 263 262 260 258 253 242 238 230 225 223 225 236 233 228 227 222 223 225 225 220 213
270 250 242 235 227 226 226 230 238 255 261 263 265 261 260 265 272 274 271 264 254 250 256 261 260 257 249 239 230 223 222 223 227 237 233 228 230 221 223 227 223 219 209
281 257 241 233 226 226 225 225 239 256 258 264 268 264 269 270 269 273 272 267 255 249 248 255 255 255 244 239 229 222 221 224 232 233 228 232 232 221 222 228 222 213 208
273 262 238 231 224 223 218 222 242 252 255 262 269 273 272 269 264 270 278 273 256 241 241 250 251 253 239 235 225 218 216 225 235 224 229 236 231 221 223 229 221 211 206
269 261 236 226 221 216 208 224 241 245 254 263 274 278 274 269 265 270 277 271 244 235 237 244 250 243 233 230 219 213 216 229 221 221 233 231 224 224 225 230 221 208 191
265 251 227 220 211 202 206 224 237 241 252 265 278 280 276 268 268 268 275 269 240 236 234 240 247 242 224 217 207 210 215 223 214 224 228 213 220 219 215 218 211 199 185
250 229 212 204 192 194 206 221 228 239 254 274 281 281 279 274 269 266 273 259 235 230 228 235 240 235 217 209 200 203 211 204 214 223 217 212 216 208 203 217 198 191 192
231 209 201 189 187 195 209 215 221 237 260 278 286 288 283 270 262 274 267 248 226 220 226 237 240 224 205 196 190 176 168 179 201 210 207 211 212 203 200 205 200 191 185
207 198 181 176 185 195 201 204 214 245 269 294 297 302 286 280 284 275 249 228 206 219 230 234 233 205 197 188 179 174 165 178 170 181 189 207 198 185 203 197 194 192 183
190 170 171 175 183 188 191 194 215 259 279 291 299 298 298 293 298 274 216 197 205 222 224 218 194 188 197 188 180 185 179 164 169 160 161 179 170 155 193 190 191 194 196
167 168 170 176 178 183 185 192 222 280 284 309 307 307 310 293 277 193 166 191 206 202 195 188 185 189 193 196 195 187 176 175 168 160 152 154 155 171 185 194 192 190 195
164 167 172 173 175 182 183 186 223 285 294 321 309 314 307 272 212 188 171 164 170 175 184 178 179 189 194 205 210 184 147 158 171 175 162 164 161 172 180 171 183 188 198
Wind_Speed_850mb
36 37 36 36 28 22 17 13 9 7 10 12 14 14 15 15 16 18 19 21 20 20 20 19 18 21 25 27 30 31 33 30 31 33 28 28 27 23 20 16 18 22 17
26 29 32 34 30 24 19 16 15 12 11 14 15 15 17 17 17 17 18 18 19 20 22 21 20 20 21 25 27 30 33 35 31 31 30 28 31 31 26 24 22 27 22
25 24 30 31 31 26 19 19 19 15 14 15 17 17 17 19 21 20 18 18 18 20 21 22 21 21 20 23 26 29 31 35 36 33 31 31 30 35 35 30 27 29 27
23 21 28 29 28 25 20 20 20 17 16 17 18 19 21 20 21 24 21 22 26 25 25 23 21 21 21 24 23 28 30 32 35 35 33 33 33 33 38 36 35 35 32
25 19 23 27 31 29 23 17 18 16 16 17 18 20 22 22 21 22 25 26 27 28 26 24 21 24 24 24 24 24 27 30 30 32 38 37 34 37 34 38 39 39 38
21 24 26 29 32 32 32 27 22 19 17 15 18 21 21 21 21 26 31 32 31 29 29 30 28 29 33 29 28 26 25 26 28 25 35 39 36 38 42 37 38 40 43
23 24 31 33 34 35 39 35 31 25 21 18 18 21 22 20 27 31 33 36 38 36 35 37 36 38 34 32 32 31 30 26 24 23 29 37 41 38 42 42 39 41 46
26 20 32 34 34 36 40 37 34 29 23 23 22 25 25 24 30 29 34 39 43 42 42 42 39 40 40 38 37 37 35 30 23 26 30 35 42 41 44 42 41 42 49
34 28 30 36 38 39 41 38 36 31 27 27 27 28 28 28 31 33 35 34 39 41 45 50 52 46 47 44 42 39 36 34 24 25 33 34 41 43 45 47 42 40 49
45 40 38 40 42 46 50 46 41 35 30 30 32 33 32 32 34 35 35 36 38 38 41 45 51 53 50 48 45 43 40 38 30 30 30 35 41 43 44 48 46 42 46
57 53 48 49 49 49 53 50 44 37 33 34 36 37 35 37 37 37 35 36 34 34 36 38 38 38 41 48 48 48 43 35 34 31 29 37 41 43 43 47 48 44 43
72 65 60 56 55 55 55 51 46 38 36 37 39 39 39 39 39 40 39 36 31 30 32 35 34 35 35 31 33 43 39 37 35 32 33 35 41 45 44 44 48 47 43
77 74 67 61 57 57 58 53 48 39 37 39 40 40 37 38 40 40 39 34 30 28 28 29 34 39 39 31 29 31 33 36 33 32 35 38 40 45 46 44 44 49 44
79 81 75 65 58 60 59 53 45 39 38 40 37 36 36 36 35 36 36 32 32 28 27 26 25 29 38 36 36 31 33 35 33 31 40 40 39 44 46 45 43 46 46
79 86 84 69 63 61 59 52 45 39 39 34 34 33 32 32 31 31 33 34 32 31 28 29 27 27 30 33 35 33 32 35 38 34 40 41 40 45 44 42 43 44 45
73 87 84 75 65 60 56 48 40 37 35 32 29 28 30 32 31 31 32 34 36 34 28 25 27 29 26 31 31 34 35 36 37 37 39 39 40 42 42 41 40 43 50
71 81 82 73 64 58 51 43 38 38 33 27 25 28 34 35 32 30 31 33 33 33 29 27 27 26 29 30 30 32 33 32 33 35 37 35 38 41 39 37 37 45 53
71 78 72 71 65 56 49 40 38 35 28 24 25 29 33 35 33 29 30 31 31 32 32 28 26 27 27 29 31 31 30 27 28 31 32 32 34 35 33 32 37 49 58
62 65 64 69 62 55 46 40 37 30 26 24 26 28 30 32 33 31 30 29 30 32 32 28 25 24 28 26 29 29 27 22 25 27 27 27 29 29 27 26 35 51 74
44 46 54 63 65 54 43 39 33 28 24 26 27 31 31 32 32 32 29 27 30 30 30 26 23 23 26 24 27 25 24 21 23 23 24 21 24 21 22 18 32 23 41
33 39 54 69 63 54 43 37 30 24 21 25 30 31 32 32 30 29 27 23 28 28 26 24 24 24 26 24 25 21 17 16 17 17 22 18 20 20 22 22 30 23 26
25 44 61 64 57 44 35 28 22 18 22 21 26 24 21 18 22 26 23 20 25 26 24 23 25 28 27 25 21 21 15 15 15 19 22 20 21 23 23 20 34 34 46
36 50 62 56 44 35 28 22 18 17 16 19 17 13 12 15 17 20 18 18 21 21 20 19 21 31 28 28 24 16 16 14 18 15 16 17 21 20 19 23 37 41 37
35 55 57 48 37 29 24 20 14 12 12 12 10 10 13 13 14 10 13 18 16 15 15 15 22 29 28 32 29 19 17 18 13 13 15 13 18 19 14 27 37 50 43
54 60 50 39 31 27 24 17 9 7 9 9 8 12 15 12 8 6 11 11 10 12 13 19 28 30 26 28 28 25 20 20 21 17 17 23 17 17 14 23 32 45 51
62 55 44 36 30 26 21 15 4 6 6 9 12 15 16 11 9 11 10 11 12 12 15 20 24 25 22 20 23 28 18 15 17 14 27 28 27 20 26 28 36 44 35
Wind_Direction_850mb
185 190 199 202 202 205 210 221 224 268 303 305 299 294 286 270 254 246 242 248 252 257 261 261 260 248 255 244 241 237 234 230 230 228 217 220 215 218 215 215 202 196 186
182 183 196 202 206 206 211 222 230 258 281 302 299 294 290 280 268 256 247 240 253 260 265 262 260 261 253 257 242 240 238 235 229 231 228 221 222 218 220 216 211 205 202
172 177 194 199 205 208 216 218 230 249 272 298 301 295 290 284 281 276 259 259 257 259 256 264 263 259 258 257 250 244 241 240 234 229 229 227 223 221 223 222 215 212 210
174 172 185 193 199 205 209 220 231 251 280 296 299 300 291 287 279 278 269 292 293 279 258 250 259 265 259 260 254 249 245 242 238 233 228 228 226 223 222 225 219 214 212
175 181 181 188 198 203 204 209 228 250 277 294 300 300 290 285 264 264 259 283 281 281 280 262 262 262 266 265 267 261 253 250 246 236 232 226 224 226 221 220 224 217 211
182 189 190 193 200 206 212 214 218 234 256 282 300 303 292 280 263 269 265 268 269 267 267 254 257 254 248 261 264 268 264 254 246 241 235 228 225 222 224 219 220 217 209
195 199 199 203 209 212 218 224 226 235 252 265 283 304 296 279 266 267 268 269 267 265 262 257 250 256 259 255 252 260 264 259 246 241 238 227 225 223 223 224 219 218 209
210 211 206 210 215 217 222 228 231 238 254 264 280 300 295 273 267 266 268 270 269 265 260 256 249 252 253 248 247 248 248 254 249 238 237 231 223 223 220 220 222 217 214
214 215 216 217 220 222 224 230 232 238 253 264 279 288 287 272 268 275 276 273 275 271 259 254 254 253 249 251 247 244 246 249 240 241 237 232 224 222 221 218 220 215 212
222 219 224 223 223 224 224 229 232 238 253 266 275 282 282 272 270 274 271 277 280 273 261 254 251 246 245 247 249 246 245 245 242 240 239 231 223 222 220 220 218 217 214
226 224 226 225 225 227 229 231 232 238 256 268 275 279 279 272 270 266 265 276 274 271 264 259 256 254 252 246 245 246 242 236 234 237 240 233 225 219 221 222 219 221 217
232 230 230 228 228 228 230 230 232 241 255 269 280 279 275 270 271 271 271 280 271 270 264 258 247 244 255 250 245 240 235 231 232 240 239 233 227 219 222 220 222 221 220
247 235 233 230 229 229 230 230 235 244 258 272 276 272 267 265 268 268 269 271 270 274 269 263 253 248 252 254 239 230 229 226 228 236 235 229 227 222 221 220 225 222 220
252 241 238 233 230 229 228 230 237 248 260 273 270 263 259 260 267 268 268 265 262 268 263 261 258 258 249 249 242 235 227 222 225 236 233 228 227 223 222 222 225 223 219
259 246 240 235 228 228 227 230 235 249 266 266 264 261 255 261 270 273 269 261 260 260 263 262 260 258 253 242 238 230 225 223 225 236 233 228 227 222 223 225 225 220 213
270 250 242 235 227 226 226 230 238 255 261 263 265 261 260 265 272 274 271 264 254 250 256 261 260 257 249 239 230 223 222 223 227 237 233 228 230 221 223 227 223 219 209
281 257 241 233 226 226 225 225 239 256 258 264 268 264 269 270 269 273 272 267 255 249 248 255 255 255 244 239 229 222 221 224 232 233 228 232 232 221 222 228 222 213 208
273 262 238 231 224 223 218 222 242 252 255 262 269 273 272 269 264 270 278 273 256 241 241 250 251 253 239 235 225 218 216 225 235 224 229 236 231 221 223 229 221 211 206
269 261 236 226 221 216 208 224 241 245 254 263 274 278 274 269 265 270 277 271 244 235 237 244 250 243 233 230 219 213 216 229 221 221 233 231 224 224 225 230 221 208 191
265 251 227 220 211 202 206 224 237 241 252 265 278 280 276 268 268 268 275 269 240 236 234 240 247 242 224 217 207 210 215 223 214 224 228 213 220 219 215 218 211 199 185
250 229 212 204 192 194 206 221 228 239 254 274 281 281 279 274 269 266 273 259 235 230 228 235 240 235 217 209 200 203 211 204 214 223 217 212 216 208 203 217 198 191 192
231 209 201 189 187 195 209 215 221 237 260 278 286 288 283 270 262 274 267 248 226 220 226 237 240 224 205 196 190 176 168 179 201 210 207 211 212 203 200 205 200 191 185
207 198 181 176 185 195 201 204 214 245 269 294 297 302 286 280 284 275 249 228 206 219 230 234 233 205 197 188 179 174 165 178 170 181 189 207 198 185 203 197 194 192 183
190 170 171 175 183 188 191 194 215 259 279 291 299 298 298 293 298 274 216 197 205 222 224 218 194 188 197 188 180 185 179 164 169 160 161 179 170 155 193 190 191 194 196
167 168 170 176 178 183 185 192 222 280 284 309 307 307 310 293 277 193 166 191 206 202 195 188 185 189 193 196 195 187 176 175 168 160 152 154 155 171 185 194 192 190 195
164 167 172 173 175 182 183 186 223 285 294 321 309 314 307 272 212 188 171 164 170 175 184 178 179 189 194 205 210 184 147 158 171 175 162 164 161 172 180 171 183 188 198